AVA9766 SKBO-SKSM

Flight info

Callsign AVA9766
Flight time 1h 12m
Altitude 37000
Route DANSA4R GIKPU UQ120 DIBAM UW9 EDVAR EDVAR1D
Aircraft A320/M-SDE3FGHIRWY/LB1

Departure

Time 2026-05-06 15:41
Airport El Dorado International Airport (SKBO)

Arrival

Time 2026-05-06 16:53
Airport Simón Bolívar International Airport (SKSM)
Time Latitude Longitude Altitude Speed Heading
2026-05-06 15:12 4.69880 -74.14463 8373 ft 0 kts 226°
2026-05-06 15:14 4.69905 -74.14506 8374 ft 0 kts 213°
2026-05-06 15:29 4.69910 -74.14503 8371 ft 2 kts 211°
2026-05-06 15:29 4.69923 -74.14494 8372 ft 2 kts 213°
2026-05-06 15:29 4.69937 -74.14485 8373 ft 2 kts 215°
2026-05-06 15:30 4.69950 -74.14475 8373 ft 2 kts 223°
2026-05-06 15:30 4.69959 -74.14462 8373 ft 2 kts 304°
2026-05-06 15:30 4.69957 -74.14459 8373 ft 0 kts 306°
2026-05-06 15:33 4.69962 -74.14467 8373 ft 3 kts 306°
2026-05-06 15:33 4.69983 -74.14496 8371 ft 8 kts 306°
2026-05-06 15:33 4.70029 -74.14556 8373 ft 15 kts 309°
2026-05-06 15:33 4.70121 -74.14636 8373 ft 20 kts 318°
2026-05-06 15:34 4.70160 -74.14713 8373 ft 6 kts 217°
2026-05-06 15:34 4.70103 -74.14757 8371 ft 15 kts 217°
2026-05-06 15:34 4.69999 -74.14837 8373 ft 21 kts 217°
2026-05-06 15:34 4.69887 -74.14921 8371 ft 18 kts 217°
2026-05-06 15:35 4.69871 -74.14993 8371 ft 9 kts 317°
2026-05-06 15:35 4.69929 -74.15074 8373 ft 20 kts 307°
2026-05-06 15:35 4.70032 -74.15206 8373 ft 28 kts 307°
2026-05-06 15:35 4.70153 -74.15367 8373 ft 29 kts 308°
2026-05-06 15:36 4.70273 -74.15528 8373 ft 29 kts 308°
2026-05-06 15:36 4.70394 -74.15688 8373 ft 29 kts 307°
2026-05-06 15:36 4.70514 -74.15846 8373 ft 28 kts 308°
2026-05-06 15:36 4.70634 -74.16003 8371 ft 28 kts 307°
2026-05-06 15:37 4.70752 -74.16160 8374 ft 28 kts 308°
2026-05-06 15:37 4.70870 -74.16316 8374 ft 28 kts 307°
2026-05-06 15:37 4.70988 -74.16471 8373 ft 28 kts 307°
2026-05-06 15:37 4.71104 -74.16624 8372 ft 17 kts 307°
2026-05-06 15:38 4.71179 -74.16723 8372 ft 18 kts 307°
2026-05-06 15:38 4.71192 -74.16801 8373 ft 10 kts 223°
2026-05-06 15:38 4.71132 -74.16846 8373 ft 11 kts 216°
2026-05-06 15:38 4.71062 -74.16887 8373 ft 12 kts 186°
2026-05-06 15:39 4.71001 -74.16844 8372 ft 0 kts 127°
2026-05-06 15:40 4.70961 -74.16792 8373 ft 38 kts 127°
2026-05-06 15:40 4.70658 -74.16390 8375 ft 104 kts 127°
2026-05-06 15:40 4.70104 -74.15659 8372 ft 157 kts 127°
2026-05-06 15:40 4.69362 -74.14677 8504 ft 187 kts 128°
2026-05-06 15:41 4.68570 -74.13690 9212 ft 184 kts 135°
2026-05-06 15:41 4.67367 -74.13148 9394 ft 202 kts 183°
2026-05-06 15:41 4.66052 -74.13667 9657 ft 216 kts 226°
2026-05-06 15:41 4.65226 -74.14972 9940 ft 230 kts 241°
2026-05-06 15:42 4.64396 -74.16402 10324 ft 241 kts 239°
2026-05-06 15:42 4.63492 -74.17848 10913 ft 247 kts 238°
2026-05-06 15:42 4.62554 -74.19299 11657 ft 249 kts 237°
2026-05-06 15:42 4.61661 -74.20800 12369 ft 252 kts 249°
2026-05-06 15:43 4.61197 -74.22527 12745 ft 271 kts 258°
2026-05-06 15:43 4.60805 -74.24463 12982 ft 295 kts 259°
2026-05-06 15:43 4.60374 -74.26525 13409 ft 309 kts 252°
2026-05-06 15:43 4.59269 -74.28375 14044 ft 315 kts 225°
2026-05-06 15:44 4.57595 -74.29814 14738 ft 318 kts 222°
2026-05-06 15:44 4.55993 -74.31361 15447 ft 322 kts 226°
2026-05-06 15:44 4.54460 -74.33006 16118 ft 325 kts 228°
2026-05-06 15:44 4.52977 -74.34733 16713 ft 331 kts 231°
2026-05-06 15:45 4.51297 -74.36412 16853 ft 352 kts 217°
2026-05-06 15:45 4.49187 -74.37776 16983 ft 371 kts 209°
2026-05-06 15:45 4.46841 -74.38976 17264 ft 384 kts 206°
2026-05-06 15:45 4.44410 -74.40145 17785 ft 390 kts 206°
2026-05-06 15:46 4.41972 -74.41365 18333 ft 393 kts 207°
2026-05-06 15:46 4.39529 -74.42625 18915 ft 396 kts 204°
2026-05-06 15:46 4.36886 -74.43432 19478 ft 400 kts 189°
2026-05-06 15:46 4.34108 -74.43506 20058 ft 403 kts 173°
2026-05-06 15:47 4.31408 -74.42756 20635 ft 406 kts 155°
2026-05-06 15:47 4.29034 -74.41219 21153 ft 409 kts 138°
2026-05-06 15:47 4.27202 -74.39035 21661 ft 413 kts 121°
2026-05-06 15:47 4.26067 -74.36389 22115 ft 417 kts 104°
2026-05-06 15:48 4.25529 -74.33516 22514 ft 422 kts 99°
2026-05-06 15:48 4.25045 -74.30604 22862 ft 427 kts 99°
2026-05-06 15:48 4.24568 -74.27689 23150 ft 432 kts 99°
2026-05-06 15:48 4.24083 -74.24709 23492 ft 435 kts 99°
2026-05-06 15:49 4.23596 -74.21707 23769 ft 438 kts 99°
2026-05-06 15:49 4.23103 -74.18682 24060 ft 441 kts 99°
2026-05-06 15:49 4.22603 -74.15645 24407 ft 443 kts 99°
2026-05-06 15:49 4.22100 -74.12598 24796 ft 444 kts 99°
2026-05-06 15:50 4.21595 -74.09545 25136 ft 446 kts 99°
2026-05-06 15:50 4.21087 -74.06475 25509 ft 447 kts 99°
2026-05-06 15:50 4.20652 -74.03384 25811 ft 450 kts 92°
2026-05-06 15:50 4.20947 -74.00273 26140 ft 451 kts 75°
2026-05-06 15:51 4.22150 -73.97390 26534 ft 451 kts 58°
2026-05-06 15:51 4.24156 -73.94990 26922 ft 452 kts 40°
2026-05-06 15:51 4.26802 -73.93295 27179 ft 454 kts 22°
2026-05-06 15:51 4.29840 -73.92431 27485 ft 455 kts 11°
2026-05-06 15:52 4.32958 -73.91829 27889 ft 456 kts 10°
2026-05-06 15:52 4.36078 -73.91233 28285 ft 458 kts 10°
2026-05-06 15:52 4.39212 -73.90634 28604 ft 460 kts 11°
2026-05-06 15:52 4.42357 -73.90031 28974 ft 461 kts 11°
2026-05-06 15:53 4.45519 -73.89421 29247 ft 464 kts 11°
2026-05-06 15:53 4.48699 -73.88802 29516 ft 467 kts 11°
2026-05-06 15:53 4.51916 -73.88338 29788 ft 469 kts
2026-05-06 15:53 4.55142 -73.88359 30020 ft 471 kts 354°
2026-05-06 15:54 4.58382 -73.88897 30188 ft 474 kts 347°
2026-05-06 15:54 4.61609 -73.89636 30420 ft 476 kts 347°
2026-05-06 15:54 4.64841 -73.90369 30717 ft 477 kts 347°
2026-05-06 15:54 4.68080 -73.91100 31015 ft 477 kts 347°
2026-05-06 15:55 4.71322 -73.91828 31261 ft 478 kts 347°
2026-05-06 15:55 4.74567 -73.92554 31511 ft 478 kts 347°
2026-05-06 15:55 4.77816 -73.93282 31774 ft 478 kts 347°
2026-05-06 15:55 4.81062 -73.94008 32081 ft 477 kts 347°
2026-05-06 15:56 4.84296 -73.94728 32442 ft 476 kts 347°
2026-05-06 15:56 4.87523 -73.95447 32790 ft 474 kts 347°
2026-05-06 15:56 4.90742 -73.96166 33116 ft 473 kts 347°
2026-05-06 15:56 4.93950 -73.96888 33438 ft 472 kts 347°
2026-05-06 15:57 4.97155 -73.97612 33725 ft 472 kts 347°
2026-05-06 15:57 5.00406 -73.98081 34027 ft 472 kts 356°
2026-05-06 15:57 5.03680 -73.98015 34332 ft 471 kts
2026-05-06 15:57 5.06904 -73.97414 34612 ft 471 kts 14°
2026-05-06 15:58 5.10082 -73.96610 34862 ft 471 kts 14°
2026-05-06 15:58 5.13256 -73.95810 35096 ft 471 kts 14°
2026-05-06 15:58 5.16445 -73.95011 35277 ft 472 kts 14°
2026-05-06 15:58 5.19592 -73.94226 35496 ft 472 kts 14°
2026-05-06 15:59 5.22783 -73.93433 35658 ft 473 kts 13°
2026-05-06 15:59 5.25974 -73.92641 35861 ft 472 kts 13°
2026-05-06 15:59 5.29163 -73.91852 36112 ft 471 kts 13°
2026-05-06 15:59 5.32344 -73.91066 36348 ft 470 kts 13°
2026-05-06 16:00 5.35516 -73.90281 36548 ft 470 kts 13°
2026-05-06 16:00 5.38696 -73.89489 36724 ft 470 kts 14°
2026-05-06 16:00 5.41869 -73.88697 36867 ft 470 kts 14°
2026-05-06 16:00 5.45042 -73.87905 36988 ft 471 kts 14°
2026-05-06 16:01 5.51394 -73.86318 37008 ft 469 kts 14°
2026-05-06 16:01 5.57748 -73.84823 37009 ft 469 kts 12°
2026-05-06 16:02 5.64151 -73.83540 37009 ft 469 kts 11°
2026-05-06 16:02 5.70569 -73.82294 37009 ft 471 kts 11°
2026-05-06 16:03 5.76970 -73.80998 37017 ft 472 kts 11°
2026-05-06 16:03 5.83393 -73.79656 37038 ft 471 kts 11°
2026-05-06 16:04 5.89801 -73.78324 37037 ft 468 kts 11°
2026-05-06 16:04 5.95093 -73.77233 37042 ft 467 kts 11°
2026-05-06 16:05 6.01456 -73.75923 37036 ft 466 kts 11°
2026-05-06 16:05 6.07805 -73.74619 37024 ft 466 kts 11°
2026-05-06 16:06 6.14147 -73.73313 37030 ft 465 kts 11°
2026-05-06 16:06 6.20482 -73.72011 37040 ft 463 kts 11°
2026-05-06 16:07 6.26780 -73.70708 37040 ft 461 kts 11°
2026-05-06 16:07 6.33056 -73.69414 37041 ft 459 kts 11°
2026-05-06 16:08 6.39267 -73.68138 37038 ft 457 kts 11°
2026-05-06 16:08 6.45495 -73.66849 37031 ft 456 kts 11°
2026-05-06 16:09 6.51705 -73.65567 37031 ft 455 kts 11°
2026-05-06 16:09 6.57913 -73.64290 37023 ft 455 kts 11°
2026-05-06 16:10 6.64113 -73.63015 37022 ft 455 kts 11°
2026-05-06 16:10 6.70317 -73.61734 37015 ft 455 kts 11°
2026-05-06 16:11 6.76516 -73.60453 37022 ft 454 kts 11°
2026-05-06 16:11 6.82712 -73.59173 37029 ft 454 kts 11°
2026-05-06 16:12 6.88862 -73.57906 37028 ft 453 kts 11°
2026-05-06 16:12 6.95036 -73.56634 37023 ft 453 kts 11°
2026-05-06 16:13 7.01291 -73.56216 37021 ft 451 kts 357°
2026-05-06 16:13 7.07561 -73.56521 37018 ft 451 kts 357°
2026-05-06 16:14 7.13836 -73.56824 37016 ft 451 kts 357°
2026-05-06 16:14 7.20105 -73.57124 37015 ft 451 kts 357°
2026-05-06 16:15 7.26380 -73.57424 37013 ft 451 kts 357°
2026-05-06 16:15 7.32651 -73.57718 37012 ft 451 kts 357°
2026-05-06 16:16 7.38931 -73.58020 37012 ft 451 kts 357°
2026-05-06 16:16 7.45205 -73.58323 37012 ft 451 kts 357°
2026-05-06 16:17 7.51477 -73.58625 37013 ft 451 kts 357°
2026-05-06 16:17 7.57747 -73.58924 37013 ft 451 kts 357°
2026-05-06 16:18 7.63974 -73.59221 37013 ft 451 kts 357°
2026-05-06 16:18 7.70242 -73.59523 37013 ft 451 kts 357°
2026-05-06 16:19 7.76512 -73.59821 37012 ft 451 kts 357°
2026-05-06 16:19 7.82773 -73.60120 37012 ft 451 kts 357°
2026-05-06 16:20 7.89040 -73.60424 37011 ft 451 kts 357°
2026-05-06 16:20 7.95307 -73.60720 37010 ft 451 kts 357°
2026-05-06 16:21 8.01573 -73.61016 37010 ft 451 kts 357°
2026-05-06 16:21 8.07831 -73.61320 37009 ft 451 kts 357°
2026-05-06 16:22 8.14098 -73.61621 37009 ft 451 kts 357°
2026-05-06 16:22 8.20312 -73.62347 37008 ft 450 kts 344°
2026-05-06 16:23 8.26155 -73.64568 37004 ft 449 kts 337°
2026-05-06 16:23 8.31950 -73.66949 37003 ft 450 kts 338°
2026-05-06 16:24 8.37715 -73.69303 37004 ft 450 kts 338°
2026-05-06 16:24 8.43520 -73.71673 37006 ft 450 kts 338°
2026-05-06 16:25 8.49319 -73.74052 37007 ft 450 kts 338°
2026-05-06 16:25 8.55120 -73.76430 37007 ft 450 kts 338°
2026-05-06 16:26 8.60918 -73.78808 37008 ft 450 kts 338°
2026-05-06 16:26 8.66719 -73.81183 37008 ft 450 kts 338°
2026-05-06 16:27 8.72519 -73.83563 37008 ft 450 kts 338°
2026-05-06 16:27 8.78318 -73.85947 37008 ft 450 kts 338°
2026-05-06 16:28 8.84116 -73.88328 37008 ft 450 kts 338°
2026-05-06 16:28 8.89912 -73.90709 37007 ft 450 kts 338°
2026-05-06 16:29 8.95711 -73.93093 37007 ft 450 kts 338°
2026-05-06 16:29 9.01467 -73.95458 37007 ft 450 kts 338°
2026-05-06 16:30 9.06533 -73.96758 37005 ft 450 kts 354°
2026-05-06 16:30 9.13797 -73.97107 37003 ft 450 kts 357°
2026-05-06 16:31 9.20051 -73.97386 37002 ft 450 kts 357°
2026-05-06 16:31 9.26302 -73.97670 37002 ft 450 kts 357°
2026-05-06 16:32 9.32563 -73.97947 37002 ft 450 kts 357°
2026-05-06 16:32 9.38827 -73.98218 37002 ft 450 kts 357°
2026-05-06 16:33 9.45085 -73.98497 37002 ft 450 kts 357°
2026-05-06 16:34 9.54485 -73.98911 37002 ft 451 kts 357°
2026-05-06 16:34 9.60755 -73.99180 37002 ft 451 kts 357°
2026-05-06 16:34 9.63853 -73.99315 36459 ft 454 kts 357°
2026-05-06 16:35 9.67033 -73.99457 35443 ft 460 kts 357°
2026-05-06 16:35 9.70227 -73.99602 34181 ft 459 kts 357°
2026-05-06 16:35 9.73403 -73.99744 33501 ft 454 kts 357°
2026-05-06 16:35 9.76563 -73.99882 33218 ft 455 kts 357°
2026-05-06 16:36 9.79730 -74.00018 33016 ft 456 kts 357°
2026-05-06 16:36 9.86024 -74.00289 33014 ft 453 kts 357°
2026-05-06 16:37 9.92346 -74.00565 32827 ft 454 kts 357°
2026-05-06 16:37 9.95487 -74.00705 31337 ft 453 kts 357°
2026-05-06 16:37 9.98688 -74.00844 29389 ft 465 kts 357°
2026-05-06 16:37 10.01913 -74.00985 27870 ft 463 kts 357°
2026-05-06 16:38 10.05111 -74.01126 26474 ft 457 kts 357°
2026-05-06 16:38 10.08259 -74.01273 25143 ft 448 kts 355°
2026-05-06 16:38 10.11299 -74.01773 23867 ft 439 kts 345°
2026-05-06 16:38 10.14222 -74.02589 22585 ft 432 kts 344°
2026-05-06 16:39 10.17052 -74.03387 21385 ft 424 kts 344°
2026-05-06 16:39 10.19871 -74.04183 20187 ft 417 kts 344°
2026-05-06 16:39 10.22646 -74.04969 18989 ft 409 kts 344°
2026-05-06 16:39 10.25367 -74.05742 17814 ft 403 kts 344°
2026-05-06 16:40 10.28047 -74.06503 16666 ft 396 kts 344°
2026-05-06 16:40 10.30677 -74.07249 15531 ft 389 kts 344°
2026-05-06 16:40 10.33263 -74.07977 14634 ft 379 kts 344°
2026-05-06 16:40 10.35738 -74.08670 14124 ft 359 kts 344°
2026-05-06 16:41 10.38086 -74.09329 13609 ft 342 kts 344°
2026-05-06 16:41 10.40337 -74.09964 13090 ft 332 kts 344°
2026-05-06 16:41 10.42558 -74.10595 12585 ft 331 kts 344°
2026-05-06 16:41 10.44769 -74.11221 12067 ft 328 kts 344°
2026-05-06 16:42 10.46962 -74.11842 11546 ft 326 kts 344°
2026-05-06 16:42 10.49149 -74.12460 11020 ft 326 kts 344°
2026-05-06 16:42 10.51305 -74.13068 10660 ft 322 kts 344°
2026-05-06 16:42 10.53421 -74.13664 10532 ft 309 kts 344°
2026-05-06 16:43 10.55457 -74.14236 10398 ft 298 kts 344°
2026-05-06 16:43 10.57431 -74.14791 10143 ft 292 kts 344°
2026-05-06 16:43 10.59378 -74.15339 9950 ft 289 kts 344°
2026-05-06 16:43 10.61309 -74.15887 9825 ft 288 kts 344°
2026-05-06 16:44 10.63239 -74.16437 9696 ft 288 kts 344°
2026-05-06 16:44 10.65166 -74.16984 9388 ft 287 kts 344°
2026-05-06 16:44 10.67085 -74.17527 9000 ft 285 kts 344°
2026-05-06 16:44 10.68993 -74.18066 8606 ft 283 kts 344°
2026-05-06 16:45 10.70880 -74.18599 8220 ft 281 kts 344°
2026-05-06 16:45 10.72758 -74.19130 7830 ft 280 kts 344°
2026-05-06 16:45 10.74624 -74.19657 7448 ft 278 kts 344°
2026-05-06 16:45 10.76456 -74.20174 7069 ft 267 kts 344°
2026-05-06 16:46 10.78200 -74.20668 6713 ft 253 kts 343°
2026-05-06 16:46 10.79838 -74.21131 6379 ft 243 kts 344°
2026-05-06 16:46 10.81468 -74.21592 6043 ft 242 kts 344°
2026-05-06 16:46 10.83084 -74.22050 5708 ft 241 kts 344°
2026-05-06 16:47 10.84710 -74.22449 5372 ft 240 kts 353°
2026-05-06 16:47 10.86375 -74.22514 5034 ft 239 kts 358°
2026-05-06 16:47 10.88024 -74.22567 4810 ft 235 kts 357°
2026-05-06 16:47 10.89652 -74.22648 4427 ft 230 kts 356°
2026-05-06 16:48 10.91209 -74.22755 4089 ft 216 kts 355°
2026-05-06 16:48 10.92647 -74.22875 3845 ft 201 kts 354°
2026-05-06 16:48 10.94032 -74.22959 3542 ft 198 kts 359°
2026-05-06 16:48 10.95373 -74.22946 3240 ft 187 kts
2026-05-06 16:49 10.96635 -74.22920 2996 ft 176 kts
2026-05-06 16:49 10.97811 -74.22897 2840 ft 161 kts
2026-05-06 16:49 10.98877 -74.22878 2643 ft 149 kts
2026-05-06 16:49 10.99892 -74.22870 2365 ft 143 kts 360°
2026-05-06 16:50 11.00863 -74.22865 2143 ft 139 kts 360°
2026-05-06 16:50 11.01825 -74.22868 1901 ft 137 kts 359°
2026-05-06 16:50 11.02779 -74.22866 1735 ft 137 kts 359°
2026-05-06 16:50 11.03422 -74.22879 1586 ft 136 kts 358°
2026-05-06 16:51 11.04677 -74.22906 1356 ft 136 kts 358°
2026-05-06 16:51 11.05622 -74.22922 1156 ft 135 kts 358°
2026-05-06 16:51 11.06564 -74.22941 953 ft 135 kts 358°
2026-05-06 16:51 11.07501 -74.22966 781 ft 134 kts 358°
2026-05-06 16:52 11.08434 -74.22987 649 ft 134 kts 358°
2026-05-06 16:52 11.09373 -74.23009 462 ft 135 kts 358°
2026-05-06 16:52 11.10306 -74.23020 256 ft 134 kts 359°
2026-05-06 16:52 11.11237 -74.23050 42 ft 132 kts 358°
2026-05-06 16:53 11.12003 -74.23065 29 ft 72 kts 359°
2026-05-06 16:53 11.12236 -74.23067 30 ft 9 kts 323°
2026-05-06 16:53 11.12232 -74.23077 29 ft 0 kts 200°
2026-05-06 16:53 11.12219 -74.23080 29 ft 5 kts 194°
2026-05-06 16:54 11.12166 -74.23094 29 ft 11 kts 195°
2026-05-06 16:54 11.12082 -74.23113 28 ft 13 kts 191°
2026-05-06 16:54 11.11996 -74.23131 27 ft 13 kts 192°
2026-05-06 16:54 11.11911 -74.23150 27 ft 12 kts 193°
2026-05-06 16:55 11.11826 -74.23163 27 ft 12 kts 177°
2026-05-06 16:55 11.11779 -74.23187 27 ft 7 kts 274°
2026-05-06 16:55 11.11778 -74.23214 26 ft 0 kts 269°